#timestamp,LO_Frequency,Hit,StdDev 
1670540415.0,286047001.3,N
1670540415.9,286047001.3,N
1670540435.8,286047002.1,N
1670540455.6,286047001.3,N
1670540475.5,286047001.5,N
1670540495.3,286047000.1,N
1670540515.1,286047000.1,N
1670540535.9,286047000.2,N
1670540555.7,286047000.3,N
1670540575.5,286047001.9,N
1670540595.4,286047001.3,N
1670540615.2,286047001.4,N
1670540635.1,286047003.9,Y
1670540636.0,286047003.9,P
1670540655.8,286047003.5,N
1670540675.6,286047003.9,N
1670540695.5,286047001.8,N
1670540715.3,286047004.2,Y
1670540735.2,286047000.1,P
1670540755.9,286047002.3,N
1670540775.7,286047001.0,N
1670540795.6,286046998.8,N
1670540815.4,286046999.0,N
1670540835.2,286046998.2,N
1670540855.1,286046998.4,N
1670540856.0,286046998.4,N
1670540875.8,286046997.1,N
1670540895.7,286046998.8,N
1670540915.5,286047000.7,N
1670540935.3,286046999.7,N
1670540955.2,286047000.8,N
1670540975.0,286046996.6,N
1670540975.9,286046996.6,N
1670540995.8,286046999.5,N
1670541015.6,286046999.3,N
1670541035.4,286046998.6,N
1670541055.3,286047000.3,N
1670541075.1,286047000.8,N
1670541095.8,286047001.1,N
1670541115.7,286046998.2,N
1670541135.5,286046998.1,N
1670541155.4,286047000.9,N
1670541175.2,286047001.1,N
1670541195.0,286046998.5,N
1670541195.9,286046998.5,N
1670541215.8,286046998.7,N
1670541235.6,286046996.5,N
1670541255.5,286046999.0,N
1670541275.3,286046999.2,N
1670541295.1,286046999.4,N
1670541315.9,286046995.0,Y
1670541335.7,286046999.2,P
1670541355.5,286046998.6,P
1670541375.4,286046998.9,P
1670541395.2,286046996.9,Y
1670541415.1,286046999.2,P
1670541416.0,286046999.2,P
1670541435.8,286046998.7,P
1670541455.6,286047000.7,Y
1670541475.5,286047000.2,P
1670541495.3,286046999.8,N
1670541515.2,286047002.8,P
1670541535.9,286047002.6,N
1670541555.7,286047000.4,N
1670541575.6,286047004.2,N
1670541595.4,286047002.2,N
1670541615.2,286047001.6,N
1670541635.1,286047002.6,N
1670541636.0,286047002.6,N
1670541655.8,286047000.5,N
1670541675.7,286047000.6,N
1670541695.5,286047000.0,N
1670541715.3,286046999.9,N
1670541735.2,286047000.0,N
1670541755.9,286047002.8,N
1670541775.7,286047002.8,N
1670541795.6,286047000.4,N
1670541815.4,286047002.3,N
1670541835.2,286047002.7,N
1670541855.1,286047002.7,N
1670541856.0,286047002.7,N
1670541875.8,286047000.2,N
1670541895.7,286047000.3,N
1670541915.5,286047002.4,N
1670541935.3,286047002.5,N
1670541955.2,286047000.4,N
1670541975.0,286047002.4,N
1670541975.9,286047002.4,N
1670541995.7,286047001.9,N
1670542015.6,286047004.4,Y
1670542035.4,286047001.8,P
1670542055.3,286047002.4,P
1670542075.1,286047002.5,P
1670542095.9,286047002.0,Y
1670542115.7,286046998.8,P
1670542135.5,286046999.4,N
1670542155.4,286046996.9,N
1670542175.2,286046997.4,N
1670542195.0,286046997.0,N
1670542195.9,286046997.0,N
1670542215.8,286046996.9,N
1670542235.6,286046999.5,N
1670542255.4,286046997.4,N
1670542275.3,286046999.1,N
1670542295.1,286046996.8,N
1670542315.9,286046997.7,N
1670542335.7,286046996.6,N
1670542355.5,286046997.3,N
1670542375.4,286046997.9,N
1670542395.2,286047000.9,N
1670542415.0,286046996.8,N
1670542416.0,286046996.8,N
1670542435.8,286046997.2,N
1670542455.6,286046996.9,N
1670542475.5,286046999.6,N
1670542495.3,286046998.6,N
1670542515.1,286046998.6,N
1670542535.9,286047000.6,N
1670542555.7,286047000.8,N
1670542575.5,286047000.8,N
1670542595.4,286046998.1,N
1670542615.2,286047000.7,N
1670542635.1,286047000.4,N
1670542636.0,286047000.4,N
1670542655.8,286046998.1,N
1670542675.6,286047000.0,N
1670542695.5,286047000.7,N
1670542715.3,286047000.0,N
1670542735.2,286047001.1,N
1670542755.9,286046998.6,N
1670542775.7,286047000.8,N
1670542795.6,286046998.6,N
1670542815.4,286046998.4,N
1670542835.2,286046998.3,N
1670542855.1,286046998.7,N
1670542856.0,286046998.7,N
1670542875.8,286046998.2,N
1670542895.7,286046998.7,N
1670542915.5,286046998.7,N
1670542935.4,286046998.5,N
1670542955.2,286047001.2,N
1670542975.0,286046998.8,N
1670542976.0,286046998.8,N
1670542995.8,286046998.1,N
1670543015.7,286046998.6,N
1670543035.5,286047001.0,N
1670543055.3,286046998.6,N
1670543075.2,286046999.4,N
1670543095.0,286046998.3,N
1670543095.9,286046998.3,N
1670543115.8,286046998.2,N
1670543135.6,286046998.2,N
1670543155.4,286046998.2,N
1670543175.3,286047000.5,N
1670543195.1,286047000.4,N
1670543215.8,286046998.5,N
1670543235.7,286046998.2,N
1670543255.5,286046999.5,N
1670543275.4,286046997.2,N
1670543295.2,286046996.5,Y
1670543315.0,286046999.2,P
1670543315.9,286046999.2,P
1670543335.8,286046998.2,P
1670543355.6,286047000.8,N
1670543375.5,286047000.0,N
1670543395.3,286047000.5,N
1670543415.1,286047000.4,N
1670543435.9,286047001.2,N
1670543455.4,286046998.7,N
1670543475.2,286046998.2,N
1670543495.1,286046998.5,N
1670543496.0,286046998.5,N
1670543515.8,286047000.8,N
1670543535.7,286046998.4,N
1670543555.5,286047000.9,N
1670543575.3,286047000.4,N
1670543595.2,286047001.1,N
1670543615.0,286047000.6,N
1670543615.9,286047000.6,N
1670543635.8,286047000.6,N
1670543655.6,286047000.7,N
1670543675.4,286046999.9,N
1670543695.3,286047000.3,N
1670543715.1,286046999.8,N
1670543735.9,286047000.5,N
1670543755.7,286046998.2,N
1670543775.5,286047000.6,N
1670543795.4,286047000.4,N
1670543815.2,286047000.8,N
1670543835.0,286047000.7,N
1670543835.9,286047000.7,N
1670543855.8,286047000.7,N
1670543875.6,286047000.7,N
1670543895.5,286047000.4,N
1670543915.3,286047000.8,N
1670543935.1,286046999.5,N
1670543955.9,286046999.6,N
1670543975.7,286046999.3,N
1670543995.5,286046996.8,Y
